Miscellaneous Local Product
Issued by NWS North Platte, NE

Home | Current Version | Previous Version | Text Only | Print | Product List | Glossary On
Versions: 1 2 3 4 5 6 7 8 9 10 11 12 13 14 15 16 17 18 19 20 21 22 23 24 25 26 27 28 29 30 31 32 33 34 35 36 37 38 39 40 41 42 43 44 45 46 47 48 49 50
000
AXUS43 KLBF 261510
MISLBF


WESTERN AND NORTH CENTRAL NEBRASKA HOURLY WEATHER ROUNDUP
NATIONAL WEATHER SERVICE NORTH PLATTE NE
1000 AM CDT SUN MAR 26 2017

NOTE: "FAIR" INDICATES FEW OR NO CLOUDS BELOW 12,000 FEET WITH NO
SIGNIFICANT WEATHER AND/OR OBSTRUCTIONS TO VISIBILITY.

NOTE: STATIONS NOT REPORTING VARIABLES SUCH AS SKY/WEATHER OR
PRESSURE ARE PROVIDED BY RAWS AND APRS NETWORKS AND ARE NOT UNDER
NATIONAL WEATHER SERVICE QUALITY CONTROL.

...OBSERVATIONS IN AND NEAR THE EASTERN PANHANDLE OF NEBRASKA...

CITY           SKY/WX    TMP DP  RH WIND       PRES   REMARKS
PINE RIDGE     PTSUNNY   46  36  68 N8        29.87R
CHADRON        CLOUDY    45  34  65 N9        29.90R
ALLIANCE       CLOUDY    43  37  79 CALM      29.84R
SIDNEY         CLOUDY    45  36  70 NE5       29.86R
CRESCENT LAKE    N/A     41  41  99 SE6         N/A
$$

...OBSERVATIONS IN NORTHERN NEBRASKA AND FAR SOUTHERN SOUTH DAKOTA...

CITY           SKY/WX    TMP DP  RH WIND       PRES   REMARKS
WINNER         CLOUDY    41  39  93 E6        29.91R FOG
VALENTINE      CLOUDY    41  36  82 SW6       29.87S
THEDFORD       CLOUDY    41  40  95 SW3       29.89S
AINSWORTH      FOG       38  38 100 CALM      29.89S VSB 3/4
O`NEILL        CLOUDY    39  39 100 CALM      29.91S FOG
ORD            CLOUDY    40  38  93 CALM      29.91R FOG
BROKEN BOW     CLOUDY    42  40  92 CALM      29.90R
VALENTINE NWR    N/A     38  38 100 W6          N/A  WCI  33
HALSEY           N/A     39  38  97 SW3         N/A
BUTTE            N/A     37  36  97 NE3         N/A
CHAMBERS         N/A     42  41  97 CALM        N/A
EWING            N/A     39  39 100 CALM        N/A
$$

...OBSERVATIONS IN SOUTHWEST NEBRASKA AND FAR NORTHEAST COLORADO...

CITY           SKY/WX    TMP DP  RH WIND       PRES   REMARKS
HOLYOKE        CLOUDY    43  41  93 CALM      29.89R FOG
IMPERIAL       CLOUDY    39  39 100 SE3       29.87S FOG
OGALLALA       CLOUDY    42  41  97 SE6       29.88S
NORTH PLATTE   CLOUDY    41  38  89 S7        29.90R
MCCOOK         CLOUDY    41  40  96 E5        29.88F
LEXINGTON      CLOUDY    41  38  89 CALM      29.92R
STAPLETON        N/A     40  38  92 CALM        N/A
GOTHENBURG       N/A     41  36  81 CALM        N/A
CALLAWAY         N/A     39  38  95 SW5         N/A
$$

...OBSERVATIONS IN CENTRAL LINCOLN COUNTY AREA...

CITY           SKY/WX    TMP DP  RH WIND       PRES   REMARKS
N.P. AIRPORT   CLOUDY    41  38  89 S7        29.90R
N.P. DOWNTOWN    N/A     40  38  93 CALM        N/A
N.P. SOUTHEAST   N/A     40  38  91 CALM        N/A
N.P. HILLCREST   N/A     40  39  95 CALM        N/A
$$

...SOME OBSERVATIONS FROM AROUND THE REGION...

CITY           SKY/WX    TMP DP  RH WIND       PRES   REMARKS
DENVER         CLOUDY    42  30  62 N13       29.86R
LIMON          LGT RAIN  39  35  86 NE16      29.82R WCI  30
ASPEN          CLOUDY    35  33  92 N7        29.94R WCI  29
LARAMIE        CLOUDY    35  33  92 W3        29.91R
CASPER         CLOUDY    38  36  92 NW6       29.97R WCI  33
CHEYENNE       CLOUDY    40  33  76 N12G23    29.88R WCI  33
SCOTTSBLUFF    CLOUDY    48  32  53 N12       29.87R
GRAND ISLAND   CLOUDY    40  40 100 CALM      29.93R FOG
OMAHA          CLOUDY    42  38  85 N7        29.91R FOG
SIOUX FALLS    CLOUDY    40  38  93 NE8       29.93S WCI  34
PIERRE         CLOUDY    40  37  89 E7        29.92R
RAPID CITY     CLOUDY    40  37  89 N13       29.89R WCI  32
BISMARCK       CLOUDY    41  36  82 S5        29.91F
KANSAS CITY    CLOUDY    45  42  89 W9        29.93R
HILL CITY      CLOUDY    42  41  96 E7        29.88S
WICHITA        CLOUDY    44  44 100 SE6       29.93R FOG
DODGE CITY     FOG       40  40 100 E13       29.81S VSB 1/4 WCI  32
OKLAHOMA CITY  CLOUDY    55  46  71 SE14      29.87S
DALLAS         CLOUDY    63  59  87 S9        29.89R
AMARILLO       CLOUDY    55  32  41 SW15      29.74F
$$




USA.gov is the U.S. government's official web portal to all federal, state and local government web resources and services.